Overview Statistics Trail Chart Weather Telemetry Raw packets
 

This is the latest recevied weather packets stored in our database for station/object EW1958. If no packets are shown the sender has not sent any weather packets the latest 10 day(s).

<< 86 87 88 89 90 91 92 >>
Time Temp. Humidity Pressure Rain* Wind** Luminosity Snow
1788044009 16.11° C 82% 1020.7 hPa 0 mm - - -
1788043709 16.11° C 82% 1020.7 hPa 0 mm - - -
1788043410 16.11° C 84% 1020.8 hPa 0 mm - - -
1788043109 16.11° C 83% 1020.7 hPa 0 mm - - -
1788042809 16.11° C 83% 1020.8 hPa 0 mm - - -
1788042614 16.11° C 82% 1020.7 hPa 0 mm - - -
1788042210 16.11° C 83% 1020.7 hPa 0 mm - - -
1788042015 16.11° C 83% 1020.7 hPa 0 mm - - -
1788041609 16.11° C 85% 1020.5 hPa 0 mm - - -
1788041468 16.11° C 88% 1020.7 hPa 0 mm - - -
1788041009 16.11° C 85% 1020.7 hPa 0 mm - - -
1788040709 16.11° C 84% 1020.6 hPa 0 mm - - -
1788040517 16.11° C 86% 1020.7 hPa 0 mm - - -
1788040211 16.11° C 88% 1020.7 hPa 0 mm - - -
1788039917 15.56° C 88% 1020.8 hPa 0 mm - - -
1788039511 15.56° C 88% 1020.9 hPa 0 mm - - -
1788039208 15.56° C 88% 1021 hPa 0 mm - - -
1788038914 15.56° C 88% 1021 hPa 0 mm - - -
1788038307 15.56° C 91% 1020.9 hPa 0 mm - - -
1788038008 15° C 92% 1020.9 hPa 0 mm - - -
1788037708 15° C 94% 1020.9 hPa 0 mm - - -
1788037418 14.44° C 93% 1021 hPa 0 mm - - -
1788036806 14.44° C 93% 1021 hPa 0 mm - - -
1788036503 14.44° C 92% 1020.9 hPa 0 mm - - -
1788036305 14.44° C 92% 1020.9 hPa 0 mm - - -

* Rain latest hour (hover to see other rain measurements)
** Current wind speed in m/s (hover to see current wind gust speed)